timestamp,wind_dir_avg,wind_spd_avg,wind_spd_max_dir,wind_spd_gust,battery_voltage,lat,long
2022-01-21 00:04:01+00:00,213.0,9.83,215.0,11.43,12.17,47.59359,-54.27349
2022-01-21 00:14:00+00:00,211.0,11.29,212.0,12.7,12.17,47.59359,-54.27349
2022-01-21 00:24:00+00:00,213.0,10.27,213.0,11.55,12.17,47.59359,-54.27349
2022-01-21 00:34:00+00:00,214.0,10.39,214.0,11.62,12.17,47.59359,-54.27349
2022-01-21 00:44:00+00:00,216.0,9.57,226.0,11.72,12.17,47.59359,-54.27349
2022-01-21 00:54:00+00:00,214.0,9.11,214.0,10.7,12.17,47.59359,-54.27349
2022-01-21 01:04:00+00:00,212.0,8.61,210.0,9.33,12.17,47.59359,-54.27349
2022-01-21 01:14:01+00:00,210.0,8.73,208.0,9.91,12.17,47.59359,-54.27349
2022-01-21 01:24:01+00:00,212.0,9.06,213.0,9.94,12.17,47.59359,-54.27349
2022-01-21 01:34:01+00:00,214.0,9.07,217.0,9.94,12.17,47.59359,-54.27349
2022-01-21 01:44:01+00:00,212.0,9.37,211.0,10.3,12.17,47.59359,-54.27349
2022-01-21 01:54:01+00:00,213.0,8.99,209.0,10.14,12.17,47.59359,-54.27349
2022-01-21 02:04:01+00:00,214.0,6.55,217.0,8.59,12.17,47.59359,-54.27349
2022-01-21 02:14:01+00:00,216.0,6.17,215.0,7.69,12.17,47.59359,-54.27349
2022-01-21 02:24:01+00:00,210.0,5.68,213.0,6.38,12.17,47.59359,-54.27349
2022-01-21 02:34:01+00:00,210.0,5.05,209.0,5.61,12.17,47.59359,-54.27349
2022-01-21 02:44:01+00:00,227.0,6.37,230.0,7.29,12.17,47.59359,-54.27349
2022-01-21 02:54:01+00:00,229.0,7.15,231.0,8.26,12.17,47.59359,-54.27349
2022-01-21 03:04:01+00:00,228.0,6.95,229.0,8.09,12.17,47.59359,-54.27349
2022-01-21 03:14:01+00:00,227.0,6.9,230.0,8.51,12.17,47.59359,-54.27349
2022-01-21 03:24:01+00:00,220.0,5.05,225.0,6.13,12.17,47.59359,-54.27349
2022-01-21 03:34:01+00:00,222.0,5.35,221.0,6.97,12.17,47.59359,-54.27349
2022-01-21 03:44:01+00:00,230.0,6.98,230.0,8.78,12.17,47.59359,-54.27349
2022-01-21 03:54:01+00:00,257.0,8.64,264.0,11.26,12.17,47.59359,-54.27349
2022-01-21 04:04:01+00:00,264.0,7.45,268.0,7.93,12.17,47.59359,-54.27349
2022-01-21 04:14:00+00:00,269.0,6.82,268.0,7.72,12.17,47.59359,-54.27349
2022-01-21 04:24:00+00:00,283.0,9.43,285.0,10.65,12.17,47.59359,-54.27349
2022-01-21 04:34:00+00:00,274.0,9.72,274.0,10.43,12.17,47.59359,-54.27349
2022-01-21 04:44:00+00:00,268.0,7.16,268.0,9.97,12.17,47.59359,-54.27349
2022-01-21 04:54:00+00:00,260.0,8.3,262.0,11.73,12.17,47.59359,-54.27349
2022-01-21 05:04:00+00:00,259.0,6.97,266.0,10.07,12.17,47.59359,-54.27349
2022-01-21 05:14:01+00:00,266.0,8.21,270.0,10.04,12.17,47.59359,-54.27349
2022-01-21 05:24:01+00:00,264.0,9.15,267.0,10.26,12.17,47.59359,-54.27349
2022-01-21 05:34:01+00:00,261.0,4.76,265.0,9.33,12.17,47.59359,-54.27349
2022-01-21 05:44:01+00:00,255.0,4.42,261.0,8.21,12.17,47.59359,-54.27349
2022-01-21 05:54:01+00:00,265.0,6.19,266.0,9.33,12.17,47.59359,-54.27349
2022-01-21 06:04:01+00:00,238.0,3.93,241.0,4.51,12.17,47.59359,-54.27349
2022-01-21 06:14:00+00:00,203.0,2.59,232.0,4.56,12.17,47.59359,-54.27349
2022-01-21 06:24:00+00:00,232.0,4.05,237.0,4.54,12.17,47.59359,-54.27349
2022-01-21 06:34:00+00:00,231.0,4.3,230.0,4.95,12.17,47.59359,-54.27349
2022-01-21 06:44:00+00:00,229.0,4.31,229.0,4.82,12.17,47.59359,-54.27349
2022-01-21 06:54:00+00:00,231.0,4.29,231.0,5.18,12.17,47.59359,-54.27349
2022-01-21 07:04:00+00:00,244.0,4.45,243.0,4.81,12.17,47.59359,-54.27349
2022-01-21 07:14:00+00:00,232.0,4.71,230.0,5.13,12.17,47.59359,-54.27349
2022-01-21 07:24:00+00:00,246.0,5.54,257.0,9.09,12.17,47.59359,-54.27349
2022-01-21 07:34:00+00:00,200.0,2.66,229.0,4.25,12.17,47.59359,-54.27349
2022-01-21 07:44:00+00:00,226.0,3.02,235.0,4.14,12.17,47.59359,-54.27349
2022-01-21 07:54:00+00:00,243.0,4.03,247.0,4.65,12.17,47.59359,-54.27349
2022-01-21 08:04:00+00:00,253.0,4.1,252.0,4.52,12.17,47.59359,-54.27349
2022-01-21 08:14:00+00:00,200.0,2.79,231.0,4.03,12.17,47.59359,-54.27349
2022-01-21 08:24:00+00:00,289.0,4.48,272.0,9.14,12.17,47.59359,-54.27349
2022-01-21 08:34:00+00:00,299.0,3.96,298.0,4.67,12.17,47.59359,-54.27349
2022-01-21 08:44:00+00:00,315.0,4.82,316.0,5.22,12.17,47.59359,-54.27349
2022-01-21 08:54:00+00:00,330.0,5.83,341.0,6.57,12.17,47.59359,-54.27349
2022-01-21 09:04:00+00:00,338.0,4.69,1.0,7.48,12.17,47.59359,-54.27349
2022-01-21 09:14:01+00:00,353.0,9.11,350.0,10.63,12.17,47.59359,-54.27349
2022-01-21 09:24:01+00:00,355.0,3.49,318.0,4.44,12.17,47.59359,-54.27349
2022-01-21 09:34:01+00:00,326.0,3.73,319.0,5.03,12.17,47.59359,-54.27349
2022-01-21 09:44:01+00:00,327.0,2.39,309.0,3.94,12.17,47.59359,-54.27349
2022-01-21 09:54:01+00:00,340.0,2.47,309.0,4.14,12.17,47.59359,-54.27349
2022-01-21 10:04:01+00:00,344.0,4.18,328.0,5.24,12.17,47.59359,-54.27349
2022-01-21 10:14:01+00:00,333.0,6.35,341.0,9.37,12.09,47.59359,-54.27349
2022-01-21 10:24:01+00:00,332.0,4.92,328.0,5.5,12.09,47.59359,-54.27349
2022-01-21 10:34:01+00:00,334.0,4.59,333.0,5.35,12.09,47.59359,-54.27349
2022-01-21 10:44:01+00:00,329.0,4.51,328.0,5.27,12.09,47.59359,-54.27349
2022-01-21 10:54:01+00:00,335.0,4.84,334.0,5.59,12.09,47.59359,-54.27349
2022-01-21 11:04:01+00:00,333.0,5.5,336.0,6.05,12.09,47.59359,-54.27349
2022-01-21 11:14:01+00:00,327.0,4.63,326.0,5.53,12.17,47.59359,-54.27349
2022-01-21 11:24:01+00:00,323.0,4.36,320.0,4.75,12.17,47.59359,-54.27349
2022-01-21 11:34:01+00:00,320.0,4.81,320.0,5.63,12.17,47.59359,-54.27349
2022-01-21 11:44:01+00:00,332.0,3.78,338.0,4.71,12.17,47.59359,-54.27349
2022-01-21 11:54:01+00:00,349.0,3.44,339.0,3.84,12.17,47.59359,-54.27349
2022-01-21 12:04:01+00:00,345.0,3.31,347.0,3.85,12.17,47.59359,-54.27349
2022-01-21 12:14:01+00:00,334.0,4.42,333.0,4.95,12.17,47.59359,-54.27349
2022-01-21 12:24:01+00:00,325.0,3.36,326.0,3.76,12.17,47.59359,-54.27349
2022-01-21 12:34:01+00:00,328.0,2.58,323.0,3.6,12.17,47.59359,-54.27349
2022-01-21 12:44:01+00:00,313.0,1.95,319.0,2.34,12.17,47.59359,-54.27349
2022-01-21 12:54:01+00:00,339.0,5.99,330.0,6.93,12.17,47.59359,-54.27349
2022-01-21 13:04:01+00:00,341.0,5.29,330.0,6.97,12.17,47.59359,-54.27349
2022-01-21 13:14:01+00:00,344.0,6.22,342.0,7.74,12.17,47.59359,-54.27349
2022-01-21 13:24:01+00:00,340.0,6.31,347.0,7.79,12.17,47.59359,-54.27349
2022-01-21 13:34:01+00:00,331.0,7.37,335.0,8.45,12.17,47.59359,-54.27349
2022-01-21 13:44:01+00:00,334.0,7.43,337.0,8.59,12.17,47.59359,-54.27349
2022-01-21 13:54:01+00:00,327.0,8.56,329.0,9.91,12.17,47.59359,-54.27349
2022-01-21 14:04:01+00:00,333.0,7.8,320.0,9.36,12.17,47.59359,-54.27349
2022-01-21 14:14:00+00:00,329.0,8.1,324.0,10.03,12.49,47.59359,-54.27349
2022-01-21 14:24:00+00:00,330.0,9.32,326.0,11.49,12.49,47.59359,-54.27349
2022-01-21 14:34:00+00:00,325.0,7.92,321.0,9.59,12.49,47.59359,-54.27349
2022-01-21 14:44:00+00:00,327.0,8.08,327.0,9.17,12.49,47.59359,-54.27349
2022-01-21 14:54:00+00:00,322.0,6.21,312.0,8.16,12.49,47.59359,-54.27349
2022-01-21 15:04:00+00:00,328.0,7.02,331.0,7.55,12.49,47.59359,-54.27349
2022-01-21 15:14:01+00:00,320.0,8.59,321.0,9.81,13.05,47.59359,-54.27349
2022-01-21 15:24:01+00:00,320.0,7.29,320.0,8.93,13.05,47.59359,-54.27349
2022-01-21 15:34:01+00:00,318.0,6.57,315.0,8.78,13.05,47.59359,-54.27349
2022-01-21 15:44:01+00:00,318.0,6.74,317.0,8.09,13.05,47.59359,-54.27349
2022-01-21 15:54:01+00:00,318.0,7.67,320.0,8.63,13.05,47.59359,-54.27349
2022-01-21 16:04:01+00:00,326.0,8.1,320.0,9.47,13.05,47.59359,-54.27349
2022-01-21 16:14:01+00:00,321.0,7.74,320.0,9.88,13.13,47.59359,-54.27349
2022-01-21 16:24:01+00:00,326.0,7.88,317.0,8.89,13.13,47.59359,-54.27349
2022-01-21 16:34:01+00:00,327.0,7.98,316.0,9.37,13.13,47.59359,-54.27349
2022-01-21 16:44:01+00:00,320.0,6.95,316.0,7.88,13.13,47.59359,-54.27349
2022-01-21 16:54:01+00:00,318.0,7.91,315.0,9.2,13.13,47.59359,-54.27349
2022-01-21 17:04:01+00:00,316.0,7.59,315.0,8.85,13.13,47.59359,-54.27349
2022-01-21 17:14:01+00:00,316.0,8.0,319.0,8.92,12.97,47.59359,-54.27349
2022-01-21 17:24:01+00:00,334.0,7.6,326.0,8.99,12.97,47.59359,-54.27349
2022-01-21 17:34:01+00:00,330.0,8.02,325.0,9.15,12.97,47.59359,-54.27349
2022-01-21 17:44:01+00:00,321.0,7.85,320.0,8.92,12.97,47.59359,-54.27349
2022-01-21 17:54:01+00:00,324.0,8.1,316.0,9.39,12.97,47.59359,-54.27349
2022-01-21 18:04:01+00:00,339.0,8.01,328.0,9.94,12.97,47.59359,-54.27349
2022-01-21 18:14:00+00:00,322.0,8.86,322.0,9.91,12.97,47.59359,-54.27349
2022-01-21 18:24:00+00:00,317.0,7.52,317.0,8.58,12.97,47.59359,-54.27349
2022-01-21 18:34:00+00:00,351.0,7.08,327.0,9.09,12.97,47.59359,-54.27349
2022-01-21 18:44:00+00:00,346.0,6.61,325.0,9.14,12.97,47.59359,-54.27349
2022-01-21 18:54:00+00:00,7.0,6.94,38.0,8.64,12.97,47.59359,-54.27349
2022-01-21 19:04:00+00:00,32.0,7.74,38.0,8.88,12.97,47.59359,-54.27349
2022-01-21 19:14:01+00:00,3.0,7.28,4.0,8.26,12.73,47.59359,-54.27349
2022-01-21 19:24:01+00:00,352.0,8.04,328.0,9.78,12.73,47.59359,-54.27349
2022-01-21 19:34:01+00:00,5.0,8.73,14.0,10.34,12.73,47.59359,-54.27349
2022-01-21 19:44:01+00:00,359.0,8.43,332.0,9.95,12.73,47.59359,-54.27349
2022-01-21 19:54:01+00:00,18.0,7.57,32.0,9.8,12.73,47.59359,-54.27349
2022-01-21 20:04:01+00:00,351.0,7.47,329.0,9.33,12.73,47.59359,-54.27349
2022-01-21 20:14:01+00:00,29.0,8.2,37.0,9.49,12.57,47.59359,-54.27349
2022-01-21 20:24:01+00:00,6.0,7.24,38.0,9.5,12.57,47.59359,-54.27349
2022-01-21 20:34:01+00:00,15.0,7.38,31.0,9.92,12.57,47.59359,-54.27349
2022-01-21 20:44:01+00:00,16.0,8.0,31.0,10.09,12.57,47.59359,-54.27349
2022-01-21 20:54:01+00:00,24.0,10.17,19.0,12.09,12.57,47.59359,-54.27349
2022-01-21 21:04:01+00:00,6.0,8.7,20.0,9.81,12.57,47.59359,-54.27349
2022-01-21 21:14:01+00:00,14.0,7.96,30.0,11.41,12.41,47.59359,-54.27349
2022-01-21 21:24:01+00:00,28.0,7.6,30.0,10.16,12.41,47.59359,-54.27349
2022-01-21 21:34:01+00:00,33.0,9.0,30.0,10.36,12.41,47.59359,-54.27349
2022-01-21 21:44:01+00:00,1.0,9.38,1.0,10.14,12.41,47.59359,-54.27349
2022-01-21 21:54:01+00:00,22.0,8.48,32.0,10.56,12.41,47.59359,-54.27349
2022-01-21 22:04:01+00:00,28.0,8.32,28.0,10.44,12.41,47.59359,-54.27349
2022-01-21 22:14:01+00:00,4.0,7.9,358.0,10.13,12.41,47.59359,-54.27349
2022-01-21 22:24:01+00:00,27.0,9.44,23.0,11.01,12.41,47.59359,-54.27349
2022-01-21 22:34:01+00:00,23.0,8.46,32.0,10.88,12.41,47.59359,-54.27349
2022-01-21 22:44:01+00:00,12.0,7.83,340.0,10.14,12.41,47.59359,-54.27349
2022-01-21 22:54:01+00:00,23.0,6.95,33.0,9.93,12.41,47.59359,-54.27349
2022-01-21 23:04:01+00:00,27.0,8.61,26.0,10.59,12.41,47.59359,-54.27349
2022-01-21 23:14:00+00:00,359.0,6.52,359.0,7.57,12.41,47.59359,-54.27349
2022-01-21 23:24:00+00:00,33.0,7.69,30.0,9.18,12.41,47.59359,-54.27349
2022-01-21 23:34:00+00:00,0.0,6.03,359.0,7.28,12.41,47.59359,-54.27349
2022-01-21 23:44:00+00:00,344.0,6.8,323.0,8.88,12.41,47.59359,-54.27349
2022-01-21 23:54:00+00:00,8.0,6.17,329.0,9.23,12.41,47.59359,-54.27349
